"Period start","avg(HW err(1)/warn(2) (#))","avg(Visibility (m))","avg(Weather code (#))","avg(Precip intensity (mm/h))","min(HW err(1)/warn(2) (#))","max(HW err(1)/warn(2) (#))","std(HW err(1)/warn(2) (#))","med(HW err(1)/warn(2) (#))","min(Visibility (m))","max(Visibility (m))","std(Visibility (m))","med(Visibility (m))","min(Weather code (#))","max(Weather code (#))","std(Weather code (#))","med(Weather code (#))","min(Precip intensity (mm/h))","max(Precip intensity (mm/h))","std(Precip intensity (mm/h))","med(Precip intensity (mm/h))"
2016-05-11 00:00:00,2,37890,0,0.00,2,2,0,2,26407,44930,4790,37898,0,0,0,0,0.00,0.00,0.00,0.00
2016-05-11 00:10:00,2,33596,0,0.00,2,2,0,2,9308,50000,10757,34201,0,0,0,0,0.00,0.00,0.00,0.00
2016-05-11 00:20:00,2,35128,0,0.00,2,2,0,2,21628,50000,8667,37713,0,0,0,0,0.00,0.00,0.00,0.00
2016-05-11 00:30:00,2,37796,0,0.00,2,2,0,2,27747,50000,6106,37325,0,0,0,0,0.00,0.00,0.00,0.00
2016-05-11 00:40:00,2,30468,0,0.00,2,2,0,2,12525,50000,12971,28172,0,0,0,0,0.00,0.00,0.00,0.00
2016-05-11 00:50:00,2,11458,0,0.00,2,2,0,2,8488,15650,2196,11280,0,0,0,0,0.00,0.00,0.00,0.00
2016-05-11 01:00:00,2,23405,0,0.00,2,2,0,2,15288,36588,6108,22380,0,0,0,0,0.00,0.00,0.00,0.00
2016-05-11 01:10:00,2,34886,0,0.00,2,2,0,2,21033,49551,9062,37255,0,0,0,0,0.00,0.00,0.00,0.00
2016-05-11 01:20:00,2,43183,0,0.00,2,2,0,2,34466,50000,6712,44868,0,0,0,0,0.00,0.00,0.00,0.00
2016-05-11 01:30:00,2,42794,0,0.00,2,2,0,2,32020,50000,5918,44191,0,0,0,0,0.00,0.00,0.00,0.00
2016-05-11 01:40:00,2,37140,0,0.00,2,2,0,2,27556,46157,6719,38273,0,0,0,0,0.00,0.00,0.00,0.00
2016-05-11 01:50:00,2,34441,0,0.00,2,2,0,2,13315,48796,11590,35931,0,0,0,0,0.00,0.00,0.00,0.00
2016-05-11 02:00:00,2,19908,71,0.04,2,2,0,2,12577,30243,5931,19186,71,71,0,71,0.00,0.15,0.06,0.03
2016-05-11 02:10:00,2,10502,71,0.41,2,2,0,2,7538,14323,2279,10330,71,71,0,71,0.05,0.85,0.27,0.45
2016-05-11 02:20:00,2,15624,72,0.12,2,2,0,2,11489,20818,2568,15210,71,77,2,71,0.00,0.30,0.11,0.08
2016-05-11 02:30:00,2,15058,74,0.12,2,2,0,2,11095,20525,2817,14768,71,77,3,74,0.00,0.30,0.09,0.10
2016-05-11 02:40:00,2,10752,74,0.16,2,2,0,2,8079,14026,1856,10978,71,77,3,74,0.10,0.35,0.07,0.15
2016-05-11 02:50:00,2,11349,72,0.17,2,2,0,2,6669,18076,3014,11015,71,77,2,71,0.00,0.45,0.12,0.17
2016-05-11 03:00:00,2,16462,74,0.08,2,2,0,2,7806,26898,5925,17092,71,77,3,74,0.00,0.25,0.09,0.08
2016-05-11 03:10:00,2,29406,8,0.00,2,2,0,2,17525,46829,9422,26164,0,77,23,0,0.00,0.00,0.00,0.00
2016-05-11 03:20:00,2,34675,0,0.00,2,2,0,2,16271,50000,12112,36054,0,0,0,0,0.00,0.00,0.00,0.00
2016-05-11 03:30:00,2,20090,0,0.00,2,2,0,2,7765,36678,8444,18978,0,0,0,0,0.00,0.00,0.00,0.00
2016-05-11 03:40:00,2,39895,0,0.00,2,2,0,2,26080,48965,6260,41718,0,0,0,0,0.00,0.00,0.00,0.00
2016-05-11 03:50:00,2,40701,0,0.00,2,2,0,2,26990,50000,8284,42119,0,0,0,0,0.00,0.00,0.00,0.00
2016-05-11 04:00:00,2,44513,0,0.00,2,2,0,2,36369,50000,4661,46046,0,0,0,0,0.00,0.00,0.00,0.00
2016-05-11 04:10:00,2,45935,0,0.00,2,2,0,2,34974,50000,4089,46600,0,0,0,0,0.00,0.00,0.00,0.00
2016-05-11 04:20:00,2,39934,0,0.00,2,2,0,2,30191,49301,6031,40352,0,0,0,0,0.00,0.00,0.00,0.00
2016-05-11 04:30:00,2,41404,0,0.00,2,2,0,2,33575,47059,3882,41388,0,0,0,0,0.00,0.00,0.00,0.00
2016-05-11 04:40:00,2,30206,0,0.00,2,2,0,2,18466,40343,7548,33638,0,0,0,0,0.00,0.00,0.00,0.00
2016-05-11 04:50:00,2,34585,0,0.00,2,2,0,2,23702,50000,7883,32168,0,0,0,0,0.00,0.00,0.00,0.00
2016-05-11 05:00:00,2,47859,0,0.00,2,2,0,2,36407,50000,4090,50000,0,0,0,0,0.00,0.00,0.00,0.00
2016-05-11 05:10:00,2,44046,0,0.00,2,2,0,2,32214,50000,5166,44246,0,0,0,0,0.00,0.00,0.00,0.00
2016-05-11 05:20:00,2,42668,0,0.00,2,2,0,2,39338,49216,3593,40398,0,0,0,0,0.00,0.00,0.00,0.00
2016-05-11 05:30:00,2,44734,0,0.00,2,2,0,2,35132,50000,4437,45838,0,0,0,0,0.00,0.00,0.00,0.00
2016-05-11 05:40:00,2,41040,0,0.00,2,2,0,2,26961,50000,8322,43005,0,0,0,0,0.00,0.00,0.00,0.00
2016-05-11 05:50:00,2,46263,0,0.00,2,2,0,2,38844,50000,4382,48596,0,0,0,0,0.00,0.00,0.00,0.00
2016-05-11 06:00:00,2,45533,0,0.00,2,2,0,2,38080,50000,3878,47058,0,0,0,0,0.00,0.00,0.00,0.00
2016-05-11 06:10:00,2,45572,0,0.00,2,2,0,2,39481,50000,3734,45328,0,0,0,0,0.00,0.00,0.00,0.00
2016-05-11 06:20:00,2,42286,0,0.00,2,2,0,2,28167,50000,6569,42910,0,0,0,0,0.00,0.00,0.00,0.00
2016-05-11 06:30:00,2,44914,0,0.00,2,2,0,2,33792,50000,5795,47014,0,0,0,0,0.00,0.00,0.00,0.00
2016-05-11 06:40:00,2,35976,14,0.05,2,2,0,2,17280,47966,8993,36940,0,71,28,0,0.00,0.40,0.12,0.00
2016-05-11 06:50:00,2,41563,28,0.00,2,2,0,2,34103,48369,4576,41072,0,71,35,0,0.00,0.00,0.00,0.00
2016-05-11 07:00:00,2,23275,57,0.11,2,2,0,2,6783,50000,13020,20762,0,71,28,71,0.00,0.70,0.20,0.03
2016-05-11 07:10:00,2,36646,7,0.00,2,2,0,2,30278,42893,3545,36242,0,71,21,0,0.00,0.00,0.00,0.00
2016-05-11 07:20:00,2,40169,0,0.00,2,2,0,2,30653,50000,6866,39870,0,0,0,0,0.00,0.00,0.00,0.00
2016-05-11 07:30:00,2,46232,0,0.00,2,2,0,2,38685,50000,4169,48434,0,0,0,0,0.00,0.00,0.00,0.00
2016-05-11 07:40:00,2,48169,0,0.00,2,2,0,2,40696,50000,3366,50000,0,0,0,0,0.00,0.00,0.00,0.00
2016-05-11 07:50:00,2,48231,0,0.00,2,2,0,2,45429,50000,1677,48303,0,0,0,0,0.00,0.00,0.00,0.00
2016-05-11 08:00:00,2,46640,0,0.00,2,2,0,2,38578,50000,4261,49208,0,0,0,0,0.00,0.00,0.00,0.00
2016-05-11 08:10:00,2,48080,0,0.00,2,2,0,2,40226,50000,3205,49910,0,0,0,0,0.00,0.00,0.00,0.00
2016-05-11 08:20:00,2,49789,0,0.00,2,2,0,2,47888,50000,634,50000,0,0,0,0,0.00,0.00,0.00,0.00
2016-05-11 08:30:00,2,46641,0,0.00,2,2,0,2,40700,50000,2879,47818,0,0,0,0,0.00,0.00,0.00,0.00
2016-05-11 08:40:00,2,42586,0,0.00,2,2,0,2,29654,50000,7153,45400,0,0,0,0,0.00,0.00,0.00,0.00
2016-05-11 08:50:00,2,41082,7,0.00,2,2,0,2,32886,50000,6429,40790,0,71,21,0,0.00,0.00,0.00,0.00
2016-05-11 09:00:00,2,40806,77,0.00,2,2,0,2,26527,50000,7791,41972,71,78,2,78,0.00,0.00,0.00,0.00
2016-05-11 09:10:00,2,36234,74,0.04,2,2,0,2,24064,49358,8235,33150,71,78,3,71,0.00,0.30,0.09,0.00
2016-05-11 09:20:00,2,47917,54,0.01,2,2,0,2,42337,50000,2600,49570,0,78,35,77,0.00,0.05,0.02,0.00
2016-05-11 09:30:00,2,47792,0,0.00,2,2,0,2,38574,50000,3506,50000,0,0,0,0,0.00,0.00,0.00,0.00
2016-05-11 09:40:00,2,39738,14,0.03,2,2,0,2,11788,50000,13982,45860,0,71,28,0,0.00,0.25,0.08,0.00
2016-05-11 09:50:00,2,14739,71,0.40,2,2,0,2,6313,26467,7096,12342,71,71,0,71,0.00,1.05,0.39,0.23
2016-05-11 10:00:00,2,36651,73,0.01,2,2,0,2,26036,47018,5916,37280,71,77,3,71,0.00,0.05,0.02,0.00
2016-05-11 10:10:00,2,40452,77,0.00,2,2,0,2,34422,47553,4028,39874,77,77,0,77,0.00,0.00,0.00,0.00
2016-05-11 10:20:00,2,39262,77,0.01,2,2,0,2,26595,43892,5279,41615,77,77,0,77,0.00,0.05,0.02,0.00
2016-05-11 10:30:00,2,26138,73,0.04,2,2,0,2,13161,39789,9329,29644,71,77,3,71,0.00,0.15,0.05,0.03
2016-05-11 10:40:00,2,23193,73,0.04,2,2,0,2,13248,30452,5292,24880,71,77,3,71,0.00,0.15,0.04,0.05
2016-05-11 10:50:00,2,31998,77,0.01,2,2,0,2,24719,41364,5114,31544,77,77,0,77,0.00,0.05,0.02,0.00
2016-05-11 11:00:00,2,28746,73,0.01,2,2,0,2,21973,36543,4100,28870,71,77,3,71,0.00,0.05,0.02,0.00
2016-05-11 11:10:00,2,28209,75,0.04,2,2,0,2,15106,44039,8960,28979,71,77,3,77,0.00,0.10,0.04,0.05
2016-05-11 11:20:00,2,26657,71,0.04,2,2,0,2,16467,35100,5859,27363,71,71,0,71,0.00,0.05,0.02,0.05
2016-05-11 11:30:00,2,33034,76,0.01,2,2,0,2,24350,46802,6678,32614,71,77,2,77,0.00,0.05,0.02,0.00
2016-05-11 11:40:00,2,39358,77,0.00,2,2,0,2,33907,46161,4455,36940,77,77,0,77,0.00,0.00,0.00,0.00
2016-05-11 11:50:00,2,27041,77,0.03,2,2,0,2,20719,38310,5852,23620,77,78,0,77,0.00,0.05,0.03,0.03
2016-05-11 12:00:00,2,34544,77,0.00,2,2,0,2,24733,43183,6598,36148,77,78,0,77,0.00,0.00,0.00,0.00
2016-05-11 12:10:00,2,33987,75,0.02,2,2,0,2,23636,50000,9394,29044,71,77,3,77,0.00,0.10,0.03,0.00
2016-05-11 12:20:00,2,25353,73,0.10,2,2,0,2,15416,36181,6170,25830,71,77,3,71,0.00,0.35,0.11,0.05
2016-05-11 12:30:00,2,25903,71,0.17,2,2,0,2,12806,41604,7749,26147,71,71,0,71,0.00,0.75,0.26,0.05
2016-05-11 12:40:00,2,15268,71,0.22,2,2,0,2,11937,19323,2512,14430,71,71,0,71,0.05,0.40,0.11,0.20
2016-05-11 12:50:00,2,12625,71,0.26,2,2,0,2,8940,16557,2831,12104,71,71,0,71,0.00,0.65,0.23,0.20
2016-05-11 13:00:00,2,20991,71,0.14,2,2,0,2,14917,31662,4861,19164,71,71,0,71,0.00,0.40,0.15,0.05
2016-05-11 13:10:00,2,35819,74,0.01,2,2,0,2,32904,38938,1888,36181,71,77,3,74,0.00,0.05,0.02,0.00
2016-05-11 13:20:00,2,30682,77,0.02,2,2,0,2,19654,37574,4756,30350,77,77,0,77,0.00,0.10,0.03,0.00
2016-05-11 13:30:00,2,31387,76,0.03,2,2,0,2,25337,42716,5364,30480,71,78,3,77,0.00,0.05,0.03,0.03
2016-05-11 13:40:00,2,25700,71,0.12,2,2,0,2,15723,46540,8262,24208,71,71,0,71,0.00,0.35,0.09,0.10
2016-05-11 13:50:00,2,16768,71,0.19,2,2,0,2,11336,21003,3684,18026,71,71,0,71,0.05,0.55,0.15,0.15
2016-05-11 14:00:00,2,14934,71,0.30,2,2,0,2,11073,23107,3275,14440,71,71,0,71,0.10,0.85,0.22,0.20
2016-05-11 14:10:00,2,14956,71,0.21,2,2,0,2,9799,18042,2273,15694,71,71,0,71,0.10,0.55,0.14,0.15
2016-05-11 14:20:00,2,17519,71,0.25,2,2,0,2,12934,21958,2828,17875,71,71,0,71,0.00,0.55,0.19,0.23
2016-05-11 14:30:00,2,13578,71,0.29,2,2,0,2,10961,18499,2093,13048,71,71,0,71,0.05,0.65,0.19,0.25
2016-05-11 14:40:00,2,17468,71,0.19,2,2,0,2,8866,24479,5458,16698,71,71,0,71,0.00,0.55,0.17,0.12
2016-05-11 14:50:00,2,21155,71,0.14,2,2,0,2,13687,27873,4366,22002,71,71,0,71,0.00,0.50,0.15,0.08
2016-05-11 15:00:00,2,18515,71,0.12,2,2,0,2,14182,22823,2224,18749,71,71,0,71,0.05,0.35,0.09,0.10
2016-05-11 15:10:00,2,19517,71,0.29,2,2,0,2,12292,27990,4899,19982,71,71,0,71,0.00,0.55,0.18,0.38
2016-05-11 15:20:00,2,27268,72,0.06,2,2,0,2,22966,33571,3162,26204,71,77,2,71,0.00,0.25,0.08,0.05
2016-05-11 15:30:00,2,20222,73,0.20,2,2,0,2,12130,33016,6059,20388,71,77,3,71,0.00,0.55,0.16,0.15
2016-05-11 15:40:00,2,20199,71,0.25,2,2,0,2,14861,28251,3548,19550,71,71,0,71,0.05,0.75,0.21,0.15
2016-05-11 15:50:00,2,24316,71,0.14,2,2,0,2,17327,36445,6567,23096,71,71,0,71,0.00,0.55,0.17,0.08
2016-05-11 16:00:00,2,29121,71,0.08,2,2,0,2,17409,38976,6865,28982,71,71,0,71,0.00,0.50,0.14,0.05
2016-05-11 16:10:00,2,30168,74,0.04,2,2,0,2,23092,40189,4883,29674,71,77,3,74,0.00,0.15,0.05,0.03
2016-05-11 16:20:00,2,13880,71,0.33,2,2,0,2,9643,21682,3866,12318,71,71,0,71,0.05,0.65,0.20,0.35
2016-05-11 16:30:00,2,8504,71,0.70,2,2,0,2,5791,12171,2221,8059,71,71,0,71,0.20,1.45,0.38,0.62
2016-05-11 16:40:00,2,8146,71,0.68,2,2,0,2,5448,11927,2207,7828,71,71,0,71,0.15,1.30,0.38,0.60
2016-05-11 16:50:00,2,8666,71,0.77,2,2,0,2,4507,12656,2294,8333,71,71,0,71,0.25,1.70,0.45,0.57
2016-05-11 17:00:00,2,8493,71,0.81,2,2,0,2,5345,12062,1953,8182,71,71,0,71,0.20,1.60,0.45,0.68
2016-05-11 17:10:00,2,5700,71,1.33,2,2,0,2,4587,7154,968,5254,71,71,0,71,0.40,2.05,0.41,1.35
2016-05-11 17:20:00,2,5936,71,1.21,2,2,0,2,4859,7894,864,5818,71,71,0,71,0.40,1.90,0.39,1.15
2016-05-11 17:30:00,2,6214,71,1.24,2,2,0,2,5196,8762,955,5996,71,71,0,71,0.95,2.00,0.35,1.10
2016-05-11 17:40:00,2,4790,71,1.36,2,2,0,2,3092,6369,1206,5232,71,71,0,71,0.70,2.30,0.43,1.27
2016-05-11 17:50:00,2,3714,71,1.71,2,2,0,2,2734,4991,778,3646,71,71,0,71,0.90,2.85,0.59,1.70
2016-05-11 18:00:00,2,4448,71,1.49,2,2,0,2,3590,5303,558,4645,71,71,0,71,1.05,2.35,0.37,1.52
2016-05-11 18:10:00,2,3609,71,1.74,2,2,0,2,2144,5710,1048,3316,71,71,0,71,0.80,2.55,0.48,1.70
2016-05-11 18:20:00,2,3608,71,1.99,2,2,0,2,2942,4343,557,3543,71,71,0,71,1.35,3.05,0.50,1.85
2016-05-11 18:30:00,2,3857,71,2.04,2,2,0,2,2878,6212,970,3568,71,71,0,71,1.00,2.85,0.58,2.10
2016-05-11 18:40:00,2,3560,71,1.86,2,2,0,2,2465,4318,607,3840,71,71,0,71,1.00,2.85,0.56,1.85
2016-05-11 18:50:00,2,3772,71,1.68,2,2,0,2,2666,5207,867,3640,71,71,0,71,1.00,2.85,0.51,1.55
2016-05-11 19:00:00,2,5145,71,1.14,2,2,0,2,2876,7293,1249,5108,71,71,0,71,0.75,1.55,0.32,1.20
2016-05-11 19:10:00,2,5313,71,1.25,2,2,0,2,3890,7325,891,5314,71,71,0,71,0.65,2.30,0.44,1.18
2016-05-11 19:20:00,2,7662,71,0.75,2,2,0,2,5280,11565,2163,7048,71,71,0,71,0.05,1.45,0.41,0.78
2016-05-11 19:30:00,2,5069,71,1.29,2,2,0,2,3250,6942,1230,4912,71,71,0,71,0.50,1.90,0.47,1.43
2016-05-11 19:40:00,2,5078,71,1.31,2,2,0,2,3107,8713,1509,4518,71,71,0,71,0.65,2.35,0.51,1.35
2016-05-11 19:50:00,2,4708,71,1.32,2,2,0,2,3497,6150,831,4641,71,71,0,71,0.50,1.90,0.42,1.33
2016-05-11 20:00:00,2,7033,71,0.75,2,2,0,2,5040,10322,1399,6621,71,71,0,71,0.25,1.40,0.39,0.65
2016-05-11 20:10:00,2,5872,71,1.34,2,2,0,2,3488,9858,1818,5695,71,71,0,71,0.05,2.60,0.80,1.40
2016-05-11 20:20:00,2,5957,71,0.99,2,2,0,2,4583,7108,692,5997,71,71,0,71,0.30,1.45,0.37,1.02
2016-05-11 20:30:00,2,7502,71,0.89,2,2,0,2,5727,10504,1431,7360,71,71,0,71,0.20,1.85,0.53,0.75
2016-05-11 20:40:00,2,6673,71,1.03,2,2,0,2,4645,7786,968,6772,71,71,0,71,0.30,1.90,0.48,0.98
2016-05-11 20:50:00,2,5579,71,1.33,2,2,0,2,3939,7880,1170,5344,71,71,0,71,0.70,1.85,0.36,1.27
2016-05-11 21:00:00,2,5282,71,1.36,2,2,0,2,4392,6144,545,5328,71,71,0,71,0.65,2.05,0.39,1.48
2016-05-11 21:10:00,2,7869,71,0.90,2,2,0,2,5287,10484,1282,7794,71,71,0,71,0.30,2.00,0.47,0.85
2016-05-11 21:20:00,2,8377,71,0.70,2,2,0,2,5560,11091,1670,8752,71,71,0,71,0.45,0.95,0.17,0.73
2016-05-11 21:30:00,2,9238,71,0.59,2,2,0,2,6362,13734,2454,8848,71,71,0,71,0.10,1.05,0.29,0.62
2016-05-11 21:40:00,2,15480,71,0.23,2,2,0,2,11520,26590,4535,13014,71,71,0,71,0.00,0.50,0.15,0.25
2016-05-11 21:50:00,2,18649,71,0.20,2,2,0,2,12247,22630,3326,19616,71,71,0,71,0.05,0.40,0.12,0.20
2016-05-11 22:00:00,2,22935,71,0.15,2,2,0,2,14604,33442,5318,23244,71,71,0,71,0.00,0.50,0.15,0.10
2016-05-11 22:10:00,2,15798,71,0.26,2,2,0,2,11068,26344,4279,15037,71,71,0,71,0.00,1.20,0.35,0.12
2016-05-11 22:20:00,2,11617,71,0.23,2,2,0,2,8189,16209,2364,11660,71,71,0,71,0.05,0.40,0.11,0.23
2016-05-11 22:30:00,2,11809,71,0.11,2,2,0,2,9096,15737,2016,11036,71,71,0,71,0.00,0.25,0.08,0.10
2016-05-11 22:40:00,2,13648,71,0.11,2,2,0,2,9803,16473,2352,14894,71,71,0,71,0.00,0.50,0.14,0.05
2016-05-11 22:50:00,2,11915,71,0.16,2,2,0,2,8891,16431,2479,11476,71,71,0,71,0.00,0.40,0.12,0.12
2016-05-11 23:00:00,2,9668,71,0.15,2,2,0,2,6581,12046,1492,9334,71,71,0,71,0.00,0.80,0.23,0.08
2016-05-11 23:10:00,2,11902,71,0.08,2,2,0,2,9201,17172,2122,11838,71,71,0,71,0.00,0.30,0.09,0.05
2016-05-11 23:20:00,2,14136,71,0.05,2,2,0,2,10422,21125,3185,13364,71,71,0,71,0.00,0.10,0.04,0.05
2016-05-11 23:30:00,2,11374,71,0.17,2,2,0,2,7153,16107,2273,11036,71,71,0,71,0.00,0.65,0.17,0.12
2016-05-11 23:40:00,2,10288,71,0.27,2,2,0,2,7897,14793,2039,9592,71,71,0,71,0.00,1.00,0.28,0.17
2016-05-11 23:50:00,2,10748,71,0.21,2,2,0,2,6587,14929,2430,10229,71,71,0,71,0.05,0.40,0.12,0.23
